This is the latest recevied weather packets stored in our database for station/object N3WMC. If no packets are shown the sender has not sent any weather packets the latest 10 day(s).
| Time | Temp. | Humidity | Pressure | Rain* | Wind** | Luminosity | Snow |
|---|---|---|---|---|---|---|---|
| 1778101253 | 12.78° C | 74% | 1011.4 hPa | 0 mm | - | 116 W/m² | - |
| 1778100950 | 12.78° C | 75% | 1011.3 hPa | 0 mm | - | 87 W/m² | - |
| 1778100644 | 12.78° C | 74% | 1011.4 hPa | 0 mm | - | 45 W/m² | - |
| 1778100343 | 12.78° C | 73% | 1011.4 hPa | 0 mm | - | 42 W/m² | - |
| 1778100040 | 12.78° C | 72% | 1011.5 hPa | 0 mm | - | 83 W/m² | - |
| 1778099738 | 12.78° C | 73% | 1011.5 hPa | 0 mm | - | 182 W/m² | - |
| 1778099434 | 12.78° C | 73% | 1011.4 hPa | 0 mm | - | 154 W/m² | - |
| 1778099132 | 12.22° C | 74% | 1011.3 hPa | 0 mm | - | 138 W/m² | - |
| 1778098828 | 11.67° C | 74% | 1011.6 hPa | 0 mm | - | 84 W/m² | - |
| 1778098526 | 11.67° C | 74% | 1011.2 hPa | 0 mm | - | 92 W/m² | - |
| 1778098222 | 12.22° C | 74% | 1011.2 hPa | 0 mm | - | 54 W/m² | - |
| 1778097918 | 12.22° C | 74% | 1011.4 hPa | 0 mm | - | 49 W/m² | - |
| 1778097615 | 12.22° C | 73% | 1011.3 hPa | 0 mm | - | 72 W/m² | - |
| 1778097312 | 12.22° C | 73% | 1011.6 hPa | 0 mm | - | 106 W/m² | - |
| 1778097008 | 12.22° C | 77% | 1011.5 hPa | 0 mm | - | 126 W/m² | - |
| 1778096706 | 12.22° C | 76% | 1011.7 hPa | 0 mm | - | 151 W/m² | - |
| 1778096402 | 12.22° C | 77% | 1011.4 hPa | 0 mm | - | 123 W/m² | - |
| 1778096100 | 11.67° C | 77% | 1011.6 hPa | 0 mm | - | 86 W/m² | - |
| 1778095791 | 11.67° C | 77% | 1011.4 hPa | 0 mm | - | 69 W/m² | - |
| 1778095488 | 11.67° C | 77% | 1011.3 hPa | 0 mm | - | 56 W/m² | - |
| 1778095184 | 11.67° C | 79% | 1011.6 hPa | 0 mm | - | 65 W/m² | - |
| 1778094881 | 12.22° C | 80% | 1011.6 hPa | 0 mm | - | 80 W/m² | - |
| 1778094577 | 12.22° C | 80% | 1011.6 hPa | 0 mm | - | 60 W/m² | - |
| 1778094274 | 12.22° C | 79% | 1011.4 hPa | 0 mm | - | 70 W/m² | - |
| 1778093971 | 12.22° C | 78% | 1011.2 hPa | 0 mm | - | 65 W/m² | - |
* Rain latest hour (hover to see other rain measurements)
** Current wind speed in m/s (hover to see current wind gust speed)